Showing default

COSMOS 1461, 14064

Orbit data source: Space-Track

COSMOS 1461, 14064 is a payload satellite owned by VMF (CIS) in LEO that was launched on Sat, 07 May 1983 UTC via a TSIKLON-2 launch vehicle from the Tyuratam Missile And Space Complex (TTMTR). Payload-class satellites include a variety of spacecraft equipped with specific instruments for various scientific and technological missions. These include communications satellites like Starlink; space stations such as the ISS; scientific satellites like the Hubble; Earth observation satellites from companies like Planet Labs, Umbra, and HawkEye 360; GPS; miniature CubeSats for education and research; and military/defense satellites.

Loading next visibility...
Identifier
14064, 1983-044A
Orbit
LEO
Last TLE update
10 hours ago
Origin
Manufacturer
TSSKB/KOMET
Mission
Defense Sigint
Bus & Motor
US-P, Unknown motor
Mass
3,300 kg wet, ~3,000 kg dry
Launch date (UTC)
1983-05-07 (42 years ago)
Launch vehicle
TSIKLON-2
Launch site
Tyuratam Missile And Space Complex (TTMTR)
Object type
Payload
Rocket body
Debris
Shape & HBR
Cyl, 10 m
Radar Cross Section
10.874 m², Large (>1 m²)

Expand to show TLE details & history

TLE from 10 hours ago
0 COSMOS 1461
1 14064U 83044A   25188.88398784  .00010614  00000-0  41376-3 0  9999
2 14064  64.9932 100.4327 0070421 302.5949  56.8395 15.24068667164421
Epoch: 2025-07-07T21:12Z
TLE epoch observation values (Epoch: 2025-07-07T21:12:56.549Z)
Latitude
-0.00003°
Longitude
-143.88986°
Altitude
469.407 km
Speed
7.647 km/s
True Right ascension
06h 41m 43s
True Declination
0° 00' 00"
Sunlit
Object was in daylight at epoch
Visualization orbit readout
Latitude
-7.72641°
Longitude
38.32992°
Altitude
516.373 km
Speed
7.595 km/s
Apparent Right ascension
17h 10m 19s
Apparent Declination
-65° 51' 48"
Sunlit
Object is in full shadow
Visualization observer readout
Local Sidereal Time
19:35:14
Azimuth
194.847° SSW
Elevation
-19.424°
Doppler factor
1
Orbital elements
Apogee altitude
540.482 km
Perigee altitude
443.72 km
Semi-major axis
6,870.238 km
Eccentricity
0.00704
Inclination
64.9932°
RAAN
100.4327°
Arg. of periapsis
302.5949°
True anomaly
Unknown
Mean anomaly
56.8395°
Eccentric anomaly
Unknown
Mean motion
3.81141 °/min
Orbital period
94.45 mins
BSTAR
0.00041376
Loading maneuver chart data...
Loading SW <> Apogee altitude chart data...

COSMOS 1461 Visibility forecast

Observer location: undefined°, undefined°

Span
Click to sort rows by Start time (UTC) header in descending order
Start Az.
Max El. time (UTC)
Max El. Az.
Max El.
End time (UTC)
End Az.
6 mins2025-07-08 19:23:40.262Z186.351° SSW2025-07-08 19:26:40.262Z128.515° SE33.564°2025-07-08 19:29:40.262Z50.223° ENE
4 mins2025-07-09 03:40:40.262Z21.224° NNE2025-07-09 03:41:40.262Z41.602° NE20.144°2025-07-09 03:44:40.262Z95.267° ESE
6 mins2025-07-09 05:16:40.262Z302.476° NW2025-07-09 05:19:40.262Z228.993° WSW29.313°2025-07-09 05:22:40.262Z179.765° S
|